Weather History for Pope Field Airport, NC

Change the Weather History Date:

Wednesday, November 6, 2013

  Actual Average Record
Temperature  
Mean Temperature 60 °F -  
Max Temperature 72 °F 65 °F 80 °F (2003)
Min Temperature 47 °F 41 °F 24 °F (1991)
Degree Days  
Heating Degree Days 6    
Growing Degree Days 10 (Base 50)    
Moisture  
Dew Point 53 °F    
Average Humidity 82    
Maximum Humidity 97    
Minimum Humidity 54    
Precipitation  
Precipitation 0.00 in - - ()
Sea Level Pressure  
Sea Level Pressure 30.27 in    
Wind  
Wind Speed 3 mph (ENE)    
Max Wind Speed 10 mph    
Max Gust Speed -    
Visibility 10 miles    
Events Rain    
Averages and records for this station are not official NWS values.
T = Trace of Precipitation, MM = Missing Value Source: NWS Daily Summary

Daily Weather History Graph

Daily Weather History Graph

Search for Another Location

Airport:

Trip Planner

Search our weather history database for the weather conditions in past years. The results will help you decide how hot, cold, wet, or windy it might be!

Date:

Astronomy

Nov. 06, 2013 Rise Set
Actual Time 6:42 AM EST 5:16 PM EST
Civil Twilight 6:15 AM EST 5:43 PM EST
Nautical Twilight 5:45 AM EST 6:13 PM EST
Astronomical Twilight 5:15 AM EST 6:43 PM EST
Moon 9:52 AM EST (11/6) 8:21 PM EST (11/6)
Length of Visible Light 11h 27m
Length of Day
10h 34m
Waxing Crescent, 13% of the Moon is Illuminated
Nov 6
Waxing Crescent
Nov 10
First Quarter
Nov 17
Full
Nov 25
Last Quarter
Dec 2
New

Hourly Weather History & Observations

Time (EST) Temp. Dew Point Humidity Pressure Visibility Wind Dir Wind Speed Gust Speed Precip Events Conditions
12:58 AM 52.0 °F 48.9 °F 89% 30.41 in 10.0 mi ENE 2.3 mph - N/A   Clear
1:58 AM 49.6 °F 48.2 °F 95% 30.39 in 10.0 mi Calm Calm - N/A   Clear
2:58 AM 49.1 °F 47.8 °F 95% 30.38 in 10.0 mi Calm Calm - N/A   Clear
3:58 AM 49.5 °F 48.0 °F 95% 30.37 in 10.0 mi NNE 2.3 mph - N/A   Clear
4:58 AM 48.6 °F 47.5 °F 96% 30.37 in 10.0 mi East 2.3 mph - N/A   Clear
5:58 AM 48.0 °F 47.3 °F 97% 30.37 in 10.0 mi ENE 3.5 mph - N/A   Clear
6:58 AM 47.7 °F 46.9 °F 97% 30.37 in 8.0 mi NE 1.2 mph - N/A   Clear
7:58 AM 50.7 °F 49.6 °F 96% 30.37 in 10.0 mi NNE 4.6 mph - N/A   Clear
8:58 AM 56.5 °F 50.4 °F 80% 30.37 in 10.0 mi ENE 8.1 mph - N/A   Clear
9:58 AM 62.2 °F 51.3 °F 67% 30.36 in 10.0 mi East 5.8 mph - N/A   Clear
10:58 AM 66.2 °F 51.4 °F 59% 30.35 in 10.0 mi NE 6.9 mph - N/A   Clear
11:58 AM 69.6 °F 52.3 °F 54% 30.31 in 10.0 mi East 10.4 mph - N/A   Mostly Cloudy
12:58 PM 71.6 °F 54.3 °F 54% 30.28 in 10.0 mi ESE 8.1 mph - N/A   Overcast
1:58 PM 72.5 °F 55.2 °F 54% 30.25 in 10.0 mi Variable 5.8 mph - N/A   Partly Cloudy
2:58 PM 72.9 °F 56.1 °F 56% 30.22 in 10.0 mi East 6.9 mph - N/A   Partly Cloudy
3:58 PM 72.3 °F 56.8 °F 58% 30.21 in 10.0 mi Variable 4.6 mph - N/A   Partly Cloudy
4:58 PM 69.8 °F 57.4 °F 65% 30.21 in 10.0 mi ENE 4.6 mph - N/A   Scattered Clouds
5:58 PM 61.3 °F 56.7 °F 85% 30.20 in 10.0 mi NE 2.3 mph - N/A   Clear
6:58 PM 60.6 °F 57.4 °F 89% 30.21 in 10.0 mi Calm Calm - N/A   Scattered Clouds
7:58 PM 57.6 °F 56.1 °F 95% 30.19 in 10.0 mi SSE 1.2 mph - N/A   Clear
8:58 PM 57.9 °F 56.3 °F 94% 30.18 in 10.0 mi NNE 1.2 mph - N/A   Overcast
9:58 PM 59.2 °F 57.2 °F 93% 30.17 in 10.0 mi NE 3.5 mph - N/A   Overcast
10:46 PM 60.8 °F 57.2 °F 88% 30.15 in 10.0 mi ENE 2.3 mph - N/A   Light Drizzle
10:58 PM 59.9 °F 57.4 °F 91% 30.16 in 10.0 mi ENE 1.2 mph - 0.00 in Rain Light Rain
11:04 PM 59.0 °F 57.2 °F 94% 30.15 in 10.0 mi Calm Calm - N/A   Mostly Cloudy
11:58 PM 60.3 °F 58.3 °F 93% 30.13 in 10.0 mi SE 2.3 mph - 0.00 in   Scattered Clouds